This is the latest recevied weather packets stored in our database for station/object OE6JVE-13. If no packets are shown the sender has not sent any weather packets the latest 10 day(s).
| Time | Temp. | Humidity | Pressure | Rain* | Wind** | Luminosity | Snow |
|---|---|---|---|---|---|---|---|
| 1788464456 | 17.22° C | 83% | 1011.3 hPa | 0 mm | - | - | - |
| 1788463866 | 17.22° C | 83% | 1011.2 hPa | 0 mm | - | - | - |
| 1788463272 | 17.22° C | 83% | 1011.2 hPa | 0 mm | - | - | - |
| 1788462680 | 17.22° C | 82% | 1011 hPa | 0 mm | - | - | - |
| 1788462042 | 17.78° C | 82% | 1011.1 hPa | 0 mm | - | - | - |
| 1788461430 | 17.78° C | 82% | 1011 hPa | 0 mm | - | - | - |
| 1788460871 | 17.78° C | 81% | 1010.9 hPa | 0 mm | - | - | - |
| 1788460246 | 18.33° C | 81% | 1010.8 hPa | 0 mm | - | - | - |
| 1788459653 | 18.33° C | 81% | 1010.8 hPa | 0 mm | - | - | - |
| 1788459061 | 18.89° C | 80% | 1010.8 hPa | 0 mm | - | - | - |
| 1788457968 | 18.89° C | 79% | 1010.6 hPa | 0 mm | - | - | - |
| 1788457219 | 19.44° C | 80% | 1010.6 hPa | 0 mm | - | - | - |
| 1788456627 | 20° C | 79% | 1010.4 hPa | 0 mm | - | - | - |
| 1788456035 | 20° C | 76% | 1010.4 hPa | 0 mm | - | - | - |
| 1788455443 | 20.56° C | 74% | 1010.3 hPa | 0 mm | - | - | - |
| 1788449455 | 27.22° C | 50% | 1009.9 hPa | 0 mm | - | - | - |
| 1788448864 | 27.22° C | 46% | 1010 hPa | 0 mm | - | - | - |
| 1788448272 | 27.78° C | 45% | 1010 hPa | 0 mm | - | - | - |
| 1788447698 | 27.78° C | 41% | 1009.8 hPa | 0 mm | - | - | - |
| 1788447025 | 27.78° C | 46% | 1010 hPa | 0 mm | - | - | - |
| 1788446500 | 27.22° C | 52% | 1009.9 hPa | 0 mm | - | - | - |
| 1788445842 | 25.56° C | 59% | 1010 hPa | 0 mm | - | - | - |
| 1788445245 | 25.56° C | 55% | 1010 hPa | 0 mm | - | - | - |
| 1788444685 | 27.22° C | 48% | 1009.9 hPa | 0 mm | - | - | - |
| 1788444092 | 27.78° C | 43% | 1010 hPa | 0 mm | - | - | - |
* Rain latest hour (hover to see other rain measurements)
** Current wind speed in m/s (hover to see current wind gust speed)